一网星座-0554星 (ONEWEB-0554)

导读 | 豆包AI

ONEWEB-0554是英国OneWeb公司的近地轨道互联网卫星,于2023年3月26日搭载印度LVM3 M3火箭发射升空,是OneWeb第一代卫星星座组网的最后一批卫星之一。卫星质量约150公斤,运行在近极轨道,使用Ku波段为用户提供宽带服务,Ka频段连接地面信关站,配备磁性抓握夹具便于后续脱轨处理,助力OneWeb完成全球卫星互联网接入的硬件组网。

基本信息
目录编号:
56056
目录名称:
ONEWEB-0554
国际标识:
2023-043L
轨道中心:
EARTH
卫星名称:
一网星座-0554星
卫星全名:
一网星座-0554星 (ONEWEB-0554)
卫星状态:
在轨 (已飞行1105 天)
发射日期:
2023-03-26 UTC
国别 :
英国 (GB)
星等 :
--
轨道信息
数据来源 国际轨道数据
星历时间: 2026-04-04T04:15:42+0800
7小时前
查看轨道信息
半长轴: 7575.892km
偏心率: 0.0001702
轨道倾角: 87.904°
近地点辐角 111.249°
升交点赤经 243.558°
平近点角 248.882°
近地点: 1196.465km
远地点: 1199.045km
周期: 109.373分钟
每日圈数: 13.165948
详细信息
平衡模式:
三轴稳定
覆盖范围:
全球
运营商:
一网卫星公司
运营商所在国:
英国
制造商(研发单位):
一网卫星公司
制造商所在国:
英国
使用方式:
暂无
卫星简介
OneWeb卫星网络由648颗重约125公斤的微型卫星组成,运行在1200公里的轨道上。 每颗卫星都能够提供至少每秒8千兆位的吞吐量,以使用其高吞吐量的Ku频段有效载荷为家庭和移动平台提供互联网接入。该卫星仍在工作。
2D轨道图
3D轨道图
轨道高度分析图
轨道倾角分析图
轨道综合分析图
查看轨道综合分析图